Location: ?????oe
(44.4874°N, 135.7046°E)
Time: 21:44:49
(UTC+00:00)

Cosmos 1484 Rocket - Pass Details

Date: 13 December 2025
Orbit: 438 x 471 km, 97.6° (Epoch: 21 January)

Event Time Altitude Azimuth Distance (km) Brightness Sun altitude
Rises 20:22:38 0° 20° (NNE) 2,467 6.2 -21.0°
Reaches altitude 10° 20:24:46 10° 28° (NNE) 1,583 5.3 -20.7°
Maximum altitude 20:27:58 39° 98° (E) 689 3.9 -20.1°
Drops below altitude 10° 20:31:06 10° 169° (S) 1,555 5.4 -19.6°
Sets 20:33:11 0° 178° (S) 2,415 6.3 -19.2°
